TVS4585 LFBT-EIDW

Flight info

Callsign TVS4585
Flight time 1h 40m
Altitude 36000
Route USAKU DCT AGN DCT SECHE DCT UVELI DCT CNA DCT MANAK DCT MUREL DCT NOZHU DCT SHIRI DCT UNFIT DCT PENWU DCT NICXI DCT LEMGU M17 VATRY VATRY4L
Aircraft B738/M-SDFGHIJ1LORVWXYZ/LB1

Departure

Time 2026-04-30 18:59
Airport Tarbes-Lourdes-Pyrénées Airport (LFBT)

Arrival

Time 2026-04-30 20:39
Airport Dublin Airport (EIDW)
Time Latitude Longitude Altitude Speed Heading
2026-04-30 18:27 43.18485 0.00365 1195 ft 0 kts 14°
2026-04-30 18:48 43.18468 0.00359 1195 ft 3 kts 13°
2026-04-30 18:48 43.18438 0.00350 1195 ft 3 kts
2026-04-30 18:49 43.18423 0.00349 1195 ft 3 kts 353°
2026-04-30 18:49 43.18404 0.00357 1196 ft 4 kts 305°
2026-04-30 18:49 43.18400 0.00364 1196 ft 1 kts 291°
2026-04-30 18:51 43.18401 0.00362 1196 ft 1 kts 291°
2026-04-30 18:51 43.18409 0.00333 1196 ft 6 kts 291°
2026-04-30 18:51 43.18424 0.00276 1196 ft 7 kts 281°
2026-04-30 18:52 43.18425 0.00215 1196 ft 6 kts 267°
2026-04-30 18:52 43.18429 0.00155 1197 ft 6 kts 282°
2026-04-30 18:52 43.18408 0.00107 1198 ft 6 kts 210°
2026-04-30 18:52 43.18370 0.00077 1199 ft 6 kts 210°
2026-04-30 18:53 43.18333 0.00048 1201 ft 6 kts 209°
2026-04-30 18:53 43.18297 0.00021 1202 ft 6 kts 209°
2026-04-30 18:53 43.18261 -0.00006 1203 ft 6 kts 208°
2026-04-30 18:53 43.18222 -0.00034 1204 ft 7 kts 208°
2026-04-30 18:54 43.18167 -0.00076 1206 ft 11 kts 214°
2026-04-30 18:54 43.18092 -0.00134 1209 ft 14 kts 206°
2026-04-30 18:54 43.17996 -0.00203 1212 ft 17 kts 208°
2026-04-30 18:54 43.17883 -0.00291 1216 ft 20 kts 210°
2026-04-30 18:55 43.17754 -0.00392 1219 ft 22 kts 209°
2026-04-30 18:55 43.17489 -0.00560 1227 ft 20 kts 201°
2026-04-30 18:55 43.17358 -0.00628 1232 ft 20 kts 201°
2026-04-30 18:56 43.17107 -0.00751 1243 ft 19 kts 201°
2026-04-30 18:56 43.16988 -0.00813 1254 ft 18 kts 201°
2026-04-30 18:56 43.16874 -0.00873 1260 ft 17 kts 201°
2026-04-30 18:57 43.16664 -0.01003 1260 ft 16 kts 219°
2026-04-30 18:57 43.16587 -0.01107 1263 ft 15 kts 243°
2026-04-30 18:57 43.16611 -0.01237 1264 ft 15 kts 321°
2026-04-30 18:58 43.16799 -0.01170 1255 ft 45 kts 21°
2026-04-30 18:58 43.17328 -0.00906 1240 ft 115 kts 20°
2026-04-30 18:58 43.18263 -0.00431 1302 ft 163 kts 19°
2026-04-30 18:59 43.20427 0.00693 2674 ft 170 kts 22°
2026-04-30 19:00 43.24329 0.02575 3867 ft 221 kts 13°
2026-04-30 19:00 43.25922 0.02621 4153 ft 245 kts 354°
2026-04-30 19:00 43.29415 0.01813 5110 ft 264 kts 350°
2026-04-30 19:01 43.33216 0.00631 6372 ft 279 kts 347°
2026-04-30 19:01 43.35040 -0.00019 7355 ft 275 kts 347°
2026-04-30 19:02 43.38891 -0.01365 8659 ft 286 kts 346°
2026-04-30 19:02 43.42844 -0.02725 9705 ft 311 kts 345°
2026-04-30 19:03 43.47300 -0.04202 10809 ft 328 kts 344°
2026-04-30 19:03 43.51889 -0.05717 11614 ft 356 kts 346°
2026-04-30 19:04 43.56685 -0.07069 13109 ft 357 kts 346°
2026-04-30 19:04 43.61580 -0.08517 14523 ft 363 kts 345°
2026-04-30 19:05 43.66552 -0.10049 15960 ft 368 kts 344°
2026-04-30 19:05 43.71582 -0.11626 17337 ft 373 kts 344°
2026-04-30 19:06 43.76689 -0.13240 18636 ft 379 kts 343°
2026-04-30 19:06 43.79270 -0.14057 19259 ft 382 kts 343°
2026-04-30 19:06 43.84241 -0.15636 20380 ft 388 kts 343°
2026-04-30 19:07 43.89541 -0.17322 21508 ft 393 kts 343°
2026-04-30 19:07 43.92217 -0.18176 22035 ft 396 kts 343°
2026-04-30 19:08 43.97630 -0.19902 23049 ft 402 kts 343°
2026-04-30 19:08 44.03117 -0.21655 23999 ft 408 kts 343°
2026-04-30 19:08 44.05895 -0.22545 24397 ft 412 kts 345°
2026-04-30 19:09 44.11533 -0.24351 25244 ft 418 kts 345°
2026-04-30 19:09 44.14377 -0.25262 25712 ft 419 kts 345°
2026-04-30 19:09 44.17224 -0.26176 26120 ft 422 kts 345°
2026-04-30 19:10 44.22979 -0.28026 26904 ft 427 kts 345°
2026-04-30 19:10 44.28793 -0.29899 27658 ft 431 kts 344°
2026-04-30 19:11 44.31716 -0.30842 28013 ft 433 kts 345°
2026-04-30 19:11 44.37612 -0.32749 28705 ft 437 kts 345°
2026-04-30 19:11 44.40581 -0.33711 29032 ft 438 kts 344°
2026-04-30 19:12 44.43557 -0.34675 29353 ft 440 kts 345°
2026-04-30 19:12 44.46545 -0.35645 29651 ft 442 kts 344°
2026-04-30 19:12 44.49549 -0.36621 29947 ft 444 kts 344°
2026-04-30 19:13 44.55593 -0.38587 30521 ft 447 kts 344°
2026-04-30 19:13 44.61608 -0.40547 31283 ft 445 kts 344°
2026-04-30 19:13 44.64610 -0.41525 31715 ft 442 kts 344°
2026-04-30 19:14 44.67643 -0.42515 32076 ft 441 kts 344°
2026-04-30 19:14 44.70582 -0.43477 32419 ft 440 kts 344°
2026-04-30 19:14 44.73564 -0.44454 32758 ft 439 kts 344°
2026-04-30 19:14 44.76531 -0.45428 33101 ft 438 kts 344°
2026-04-30 19:15 44.79491 -0.46400 33464 ft 436 kts 344°
2026-04-30 19:15 44.85385 -0.48338 34108 ft 434 kts 344°
2026-04-30 19:15 44.88317 -0.49303 34430 ft 432 kts 344°
2026-04-30 19:16 44.91242 -0.50267 34676 ft 433 kts 344°
2026-04-30 19:16 44.94184 -0.51239 34854 ft 435 kts 344°
2026-04-30 19:16 45.00075 -0.53188 35373 ft 434 kts 344°
2026-04-30 19:17 45.03012 -0.54161 35631 ft 434 kts 344°
2026-04-30 19:17 45.08896 -0.56112 36000 ft 436 kts 344°
2026-04-30 19:17 45.11857 -0.57096 36131 ft 437 kts 344°
2026-04-30 19:18 45.20799 -0.60071 36129 ft 439 kts 344°
2026-04-30 19:19 45.26698 -0.62035 36144 ft 434 kts 344°
2026-04-30 19:19 45.35500 -0.64983 36152 ft 433 kts 345°
2026-04-30 19:20 45.41362 -0.66951 36149 ft 433 kts 345°
2026-04-30 19:21 45.50117 -0.69896 36150 ft 434 kts 345°
2026-04-30 19:22 45.61895 -0.73873 36148 ft 435 kts 345°
2026-04-30 19:23 45.79628 -0.79894 36149 ft 438 kts 345°
2026-04-30 19:24 45.88528 -0.82931 36138 ft 439 kts 345°
2026-04-30 19:25 46.03385 -0.88022 36128 ft 439 kts 346°
2026-04-30 19:26 46.15276 -0.92117 36136 ft 440 kts 346°
2026-04-30 19:27 46.23991 -0.96102 36127 ft 439 kts 332°
2026-04-30 19:28 46.32022 -1.02515 36131 ft 440 kts 330°
2026-04-30 19:29 46.42773 -1.11102 36127 ft 442 kts 331°
2026-04-30 19:30 46.53526 -1.19626 36126 ft 442 kts 331°
2026-04-30 19:31 46.64323 -1.28222 36126 ft 442 kts 331°
2026-04-30 19:31 46.72418 -1.34695 36128 ft 443 kts 331°
2026-04-30 19:32 46.77822 -1.39031 36132 ft 442 kts 331°
2026-04-30 19:32 46.83209 -1.43361 36131 ft 443 kts 331°
2026-04-30 19:33 46.88613 -1.47710 36127 ft 443 kts 331°
2026-04-30 19:33 46.94008 -1.52065 36127 ft 443 kts 331°
2026-04-30 19:34 46.99407 -1.56434 36127 ft 444 kts 331°
2026-04-30 19:35 47.07512 -1.63015 36123 ft 445 kts 331°
2026-04-30 19:35 47.12017 -1.66680 36130 ft 446 kts 331°
2026-04-30 19:36 47.17443 -1.71105 36128 ft 447 kts 331°
2026-04-30 19:36 47.25608 -1.77784 36136 ft 449 kts 331°
2026-04-30 19:37 47.31066 -1.82259 36128 ft 450 kts 331°
2026-04-30 19:37 47.36536 -1.86760 36125 ft 451 kts 331°
2026-04-30 19:38 47.42018 -1.91279 36127 ft 452 kts 330°
2026-04-30 19:38 47.47513 -1.95821 36132 ft 453 kts 331°
2026-04-30 19:39 47.53013 -2.00376 36130 ft 454 kts 330°
2026-04-30 19:39 47.58529 -2.04958 36122 ft 454 kts 330°
2026-04-30 19:40 47.64036 -2.09542 36125 ft 454 kts 330°
2026-04-30 19:40 47.69543 -2.14137 36127 ft 453 kts 330°
2026-04-30 19:41 47.75031 -2.18725 36134 ft 453 kts 330°
2026-04-30 19:41 47.80480 -2.23295 36128 ft 452 kts 330°
2026-04-30 19:42 47.85956 -2.27900 36133 ft 452 kts 330°
2026-04-30 19:42 47.91432 -2.32515 36127 ft 451 kts 330°
2026-04-30 19:43 47.96894 -2.37134 36128 ft 451 kts 330°
2026-04-30 19:44 48.05080 -2.44065 36119 ft 451 kts 330°
2026-04-30 19:44 48.10547 -2.48710 36126 ft 452 kts 330°
2026-04-30 19:45 48.16009 -2.53364 36120 ft 452 kts 330°
2026-04-30 19:45 48.21469 -2.58028 36119 ft 452 kts 330°
2026-04-30 19:46 48.26931 -2.62703 36111 ft 452 kts 330°
2026-04-30 19:46 48.32393 -2.67394 36118 ft 452 kts 330°
2026-04-30 19:47 48.37854 -2.72092 36108 ft 453 kts 330°
2026-04-30 19:47 48.43280 -2.76774 36102 ft 453 kts 330°
2026-04-30 19:48 48.48740 -2.81497 36102 ft 452 kts 330°
2026-04-30 19:48 48.54393 -2.85605 36109 ft 451 kts 338°
2026-04-30 19:49 48.60252 -2.89023 36097 ft 451 kts 339°
2026-04-30 19:49 48.69022 -2.94147 36102 ft 450 kts 338°
2026-04-30 19:50 48.74831 -2.97644 36102 ft 450 kts 338°
2026-04-30 19:50 48.80645 -3.01181 36105 ft 450 kts 338°
2026-04-30 19:51 48.86449 -3.04725 36097 ft 450 kts 338°
2026-04-30 19:51 48.92252 -3.08277 36102 ft 450 kts 338°
2026-04-30 19:52 48.98057 -3.11834 36104 ft 450 kts 338°
2026-04-30 19:52 49.03865 -3.15402 36099 ft 450 kts 338°
2026-04-30 19:53 49.09675 -3.18981 36096 ft 451 kts 338°
2026-04-30 19:53 49.15501 -3.22580 36094 ft 452 kts 337°
2026-04-30 19:54 49.21335 -3.26192 36096 ft 453 kts 337°
2026-04-30 19:54 49.27178 -3.29819 36091 ft 454 kts 337°
2026-04-30 19:55 49.33033 -3.33465 36096 ft 455 kts 337°
2026-04-30 19:55 49.38905 -3.37130 36093 ft 456 kts 337°
2026-04-30 19:56 49.44787 -3.40811 36092 ft 457 kts 337°
2026-04-30 19:56 49.50678 -3.44504 36092 ft 457 kts 337°
2026-04-30 19:57 49.56570 -3.48210 36082 ft 458 kts 337°
2026-04-30 19:57 49.62460 -3.51923 36094 ft 458 kts 337°
2026-04-30 19:58 49.68354 -3.55650 36098 ft 458 kts 337°
2026-04-30 19:58 49.74251 -3.59386 36106 ft 458 kts 337°
2026-04-30 19:59 49.80160 -3.63141 36101 ft 459 kts 337°
2026-04-30 20:00 49.89029 -3.68797 36094 ft 460 kts 336°
2026-04-30 20:00 49.94950 -3.72586 36092 ft 461 kts 336°
2026-04-30 20:01 50.03843 -3.78295 36092 ft 461 kts 336°
2026-04-30 20:01 50.09772 -3.82113 36091 ft 461 kts 336°
2026-04-30 20:02 50.18674 -3.87865 36093 ft 462 kts 336°
2026-04-30 20:03 50.27571 -3.93639 36093 ft 462 kts 336°
2026-04-30 20:03 50.33465 -3.97477 36095 ft 462 kts 336°
2026-04-30 20:04 50.39393 -4.01346 36092 ft 462 kts 336°
2026-04-30 20:05 50.48292 -4.07173 36093 ft 462 kts 336°
2026-04-30 20:05 50.57187 -4.13024 36097 ft 462 kts 336°
2026-04-30 20:06 50.63115 -4.16938 36091 ft 462 kts 336°
2026-04-30 20:06 50.69035 -4.20856 36094 ft 462 kts 336°
2026-04-30 20:07 50.74945 -4.24776 36090 ft 461 kts 336°
2026-04-30 20:08 50.83815 -4.30682 36090 ft 461 kts 336°
2026-04-30 20:08 50.89720 -4.34627 36094 ft 460 kts 336°
2026-04-30 20:09 50.95625 -4.38581 36091 ft 460 kts 336°
2026-04-30 20:09 51.04469 -4.44529 36079 ft 460 kts 336°
2026-04-30 20:10 51.13302 -4.50494 36090 ft 460 kts 336°
2026-04-30 20:11 51.22147 -4.56491 35415 ft 458 kts 336°
2026-04-30 20:11 51.25066 -4.58475 35011 ft 454 kts 336°
2026-04-30 20:11 51.27959 -4.60443 34609 ft 450 kts 336°
2026-04-30 20:12 51.33673 -4.64342 33804 ft 443 kts 335°
2026-04-30 20:12 51.36496 -4.66271 33394 ft 440 kts 335°
2026-04-30 20:12 51.39304 -4.68193 32999 ft 437 kts 335°
2026-04-30 20:13 51.42094 -4.70105 32597 ft 434 kts 336°
2026-04-30 20:13 51.44864 -4.72006 32194 ft 432 kts 336°
2026-04-30 20:13 51.47616 -4.73898 31806 ft 429 kts 336°
2026-04-30 20:13 51.50348 -4.75778 31410 ft 426 kts 336°
2026-04-30 20:14 51.53069 -4.77653 31018 ft 424 kts 336°
2026-04-30 20:14 51.55770 -4.79517 30616 ft 422 kts 336°
2026-04-30 20:14 51.58458 -4.81374 30240 ft 419 kts 336°
2026-04-30 20:14 51.61128 -4.83221 29859 ft 417 kts 336°
2026-04-30 20:15 51.63785 -4.85062 29467 ft 415 kts 336°
2026-04-30 20:15 51.66435 -4.86899 29067 ft 414 kts 336°
2026-04-30 20:15 51.69076 -4.88732 28663 ft 413 kts 336°
2026-04-30 20:15 51.71709 -4.90562 28260 ft 411 kts 336°
2026-04-30 20:16 51.74328 -4.92386 27860 ft 410 kts 336°
2026-04-30 20:16 51.76952 -4.94215 27449 ft 409 kts 336°
2026-04-30 20:16 51.79563 -4.96039 27058 ft 408 kts 336°
2026-04-30 20:16 51.82161 -4.97854 26654 ft 407 kts 336°
2026-04-30 20:17 51.84749 -4.99664 26258 ft 406 kts 336°
2026-04-30 20:17 51.87344 -5.01483 25857 ft 405 kts 336°
2026-04-30 20:17 51.89924 -5.03293 25458 ft 404 kts 336°
2026-04-30 20:17 51.92503 -5.05105 25059 ft 403 kts 336°
2026-04-30 20:18 51.95072 -5.06911 24657 ft 403 kts 336°
2026-04-30 20:18 51.97641 -5.08719 24259 ft 402 kts 336°
2026-04-30 20:18 52.00202 -5.10524 23857 ft 401 kts 336°
2026-04-30 20:18 52.02761 -5.12328 23455 ft 400 kts 336°
2026-04-30 20:19 52.05313 -5.14133 23053 ft 400 kts 336°
2026-04-30 20:19 52.07000 -5.15327 22792 ft 399 kts 336°
2026-04-30 20:19 52.10402 -5.17737 22270 ft 398 kts 336°
2026-04-30 20:19 52.12932 -5.19532 21871 ft 397 kts 336°
2026-04-30 20:20 52.14613 -5.20726 21602 ft 397 kts 336°
2026-04-30 20:20 52.17140 -5.22522 21211 ft 396 kts 336°
2026-04-30 20:20 52.19659 -5.24315 20793 ft 395 kts 336°
2026-04-30 20:20 52.22176 -5.26108 20403 ft 394 kts 336°
2026-04-30 20:21 52.24680 -5.27894 20014 ft 393 kts 336°
2026-04-30 20:21 52.27180 -5.29680 19621 ft 391 kts 336°
2026-04-30 20:21 52.29674 -5.31464 19218 ft 391 kts 336°
2026-04-30 20:21 52.32159 -5.33244 18829 ft 390 kts 336°
2026-04-30 20:22 52.34636 -5.35021 18441 ft 388 kts 336°
2026-04-30 20:22 52.37108 -5.36796 18046 ft 387 kts 336°
2026-04-30 20:22 52.39569 -5.38565 17657 ft 386 kts 336°
2026-04-30 20:22 52.42027 -5.40333 17262 ft 385 kts 336°
2026-04-30 20:23 52.44474 -5.42097 16869 ft 384 kts 336°
2026-04-30 20:23 52.46905 -5.43852 16488 ft 382 kts 336°
2026-04-30 20:23 52.49341 -5.45612 16103 ft 381 kts 336°
2026-04-30 20:23 52.51760 -5.47360 15713 ft 379 kts 336°
2026-04-30 20:24 52.54171 -5.49105 15329 ft 378 kts 336°
2026-04-30 20:24 52.56594 -5.50764 14905 ft 378 kts 340°
2026-04-30 20:24 52.59093 -5.52090 14477 ft 377 kts 343°
2026-04-30 20:24 52.61609 -5.53295 14100 ft 375 kts 344°
2026-04-30 20:25 52.66598 -5.55729 13336 ft 372 kts 343°
2026-04-30 20:25 52.69068 -5.56986 12963 ft 371 kts 343°
2026-04-30 20:26 52.73947 -5.59509 12211 ft 364 kts 343°
2026-04-30 20:26 52.78716 -5.61997 11465 ft 350 kts 343°
2026-04-30 20:26 52.81001 -5.63188 11121 ft 340 kts 343°
2026-04-30 20:27 52.85408 -5.65491 10439 ft 325 kts 342°
2026-04-30 20:27 52.89552 -5.67664 10107 ft 300 kts 342°
2026-04-30 20:28 52.93457 -5.69705 9562 ft 288 kts 343°
2026-04-30 20:28 52.97208 -5.71675 9041 ft 282 kts 342°
2026-04-30 20:29 53.01017 -5.73693 8501 ft 294 kts 342°
2026-04-30 20:30 53.06874 -5.76777 7618 ft 294 kts 342°
2026-04-30 20:30 53.12573 -5.79785 7184 ft 277 kts 342°
2026-04-30 20:31 53.15645 -5.81415 6856 ft 272 kts 342°
2026-04-30 20:32 53.21037 -5.84277 6119 ft 270 kts 342°
2026-04-30 20:32 53.24630 -5.86185 5615 ft 270 kts 342°
2026-04-30 20:33 53.26436 -5.87146 5282 ft 274 kts 342°
2026-04-30 20:33 53.30038 -5.89068 4765 ft 270 kts 343°
2026-04-30 20:33 53.31825 -5.90017 4506 ft 269 kts 343°
2026-04-30 20:34 53.35363 -5.91910 4025 ft 259 kts 343°
2026-04-30 20:34 53.38683 -5.93691 3536 ft 243 kts 343°
2026-04-30 20:35 53.40095 -5.95159 3278 ft 234 kts 306°
2026-04-30 20:35 53.40634 -5.97538 3087 ft 216 kts 268°
2026-04-30 20:35 53.40825 -6.02371 2712 ft 195 kts 272°
2026-04-30 20:36 53.40945 -6.04489 2591 ft 177 kts 269°
2026-04-30 20:36 53.41051 -6.06496 2409 ft 166 kts 269°
2026-04-30 20:36 53.41241 -6.10154 1956 ft 151 kts 271°
2026-04-30 20:37 53.41330 -6.11887 1764 ft 149 kts 272°
2026-04-30 20:37 53.41421 -6.13630 1570 ft 150 kts 273°
2026-04-30 20:37 53.41516 -6.15375 1402 ft 150 kts 274°
2026-04-30 20:37 53.41600 -6.17105 1187 ft 149 kts 275°
2026-04-30 20:38 53.41681 -6.18837 961 ft 150 kts 276°
2026-04-30 20:38 53.41781 -6.20575 764 ft 150 kts 276°
2026-04-30 20:38 53.41876 -6.22305 575 ft 149 kts 275°
2026-04-30 20:39 53.42062 -6.25745 216 ft 142 kts 275°
2026-04-30 20:39 53.42135 -6.27072 217 ft 83 kts 275°
2026-04-30 20:39 53.42175 -6.27696 212 ft 29 kts 283°
2026-04-30 20:40 53.42287 -6.28096 212 ft 12 kts 307°
2026-04-30 20:40 53.42352 -6.28121 216 ft 9 kts 33°
2026-04-30 20:40 53.42361 -6.28017 210 ft 9 kts 95°
2026-04-30 20:41 53.42350 -6.27805 212 ft 9 kts 96°
2026-04-30 20:41 53.42343 -6.27699 210 ft 10 kts 96°
2026-04-30 20:41 53.42334 -6.27561 210 ft 14 kts 93°
2026-04-30 20:41 53.42326 -6.27381 210 ft 17 kts 95°
2026-04-30 20:42 53.42313 -6.27163 216 ft 20 kts 96°
2026-04-30 20:42 53.42298 -6.26912 210 ft 23 kts 95°
2026-04-30 20:42 53.42270 -6.26376 210 ft 0 kts 93°
2026-04-30 20:43 53.42269 -6.26352 210 ft 4 kts 93°
2026-04-30 20:43 53.42267 -6.26283 210 ft 8 kts 92°
2026-04-30 20:43 53.42263 -6.26170 211 ft 11 kts 94°
2026-04-30 20:44 53.42313 -6.25877 213 ft 17 kts 41°
2026-04-30 20:44 53.42405 -6.25735 213 ft 19 kts 44°
2026-04-30 20:44 53.42583 -6.25421 213 ft 18 kts 46°
2026-04-30 20:45 53.42751 -6.25135 211 ft 17 kts 45°
2026-04-30 20:45 53.42829 -6.25002 215 ft 12 kts 48°
2026-04-30 20:45 53.42836 -6.24991 210 ft 1 kts 46°
2026-04-30 20:46 53.42900 -6.24901 210 ft 9 kts 44°
2026-04-30 20:46 53.42938 -6.24819 218 ft 9 kts 70°
2026-04-30 20:47 53.42937 -6.24771 220 ft 1 kts 121°
2026-04-30 20:47 53.42918 -6.24758 220 ft 4 kts 170°
2026-04-30 20:48 53.42886 -6.24761 210 ft 0 kts 185°